Hourly Weather Bolshoy Mezhnik

Today, 23 July, Friday

Time Temperature Precipitation Wind Pressure Humidity
00:00 +13°C° 0 mm 3 mps 744 mmHg 74%
01:00 +13°C° 0 mm 3 mps 744 mmHg 77%
02:00 +13°C° 0 mm 3 mps 743 mmHg 80%
03:00 +13°C° 0 mm 3 mps 743 mmHg 79%
04:00 +13°C° 0 mm 3 mps 743 mmHg 78%
05:00 +13°C° 0 mm 3 mps 743 mmHg 77%
06:00 +16°C° 0 mm 3 mps 743 mmHg 73%
07:00 +18°C° 0 mm 4 mps 743 mmHg 70%
08:00 +20°C° 0 mm 4 mps 743 mmHg 66%
09:00 +21°C° 0 mm 5 mps 743 mmHg 61%
10:00 +22°C° 0 mm 5 mps 743 mmHg 56%
11:00 +24°C° 0 mm 6 mps 743 mmHg 50%
12:00 +24°C° 0 mm 6 mps 742 mmHg 49%
13:00 +25°C° 0 mm 5 mps 742 mmHg 48%
14:00 +26°C° 0 mm 5 mps 742 mmHg 46%
15:00 +25°C° 0.1 mm 5 mps 742 mmHg 50%
16:00 +23°C° 0.1 mm 4 mps 742 mmHg 54%
17:00 +23°C° 0.1 mm 4 mps 742 mmHg 58%
18:00 +22°C° 0.1 mm 4 mps 742 mmHg 63%
19:00 +20°C° 0.1 mm 3 mps 742 mmHg 69%
20:00 +19°C° 0.1 mm 3 mps 742 mmHg 74%
21:00 +18°C° 0 mm 3 mps 742 mmHg 78%
22:00 +18°C° 0 mm 3 mps 742 mmHg 82%
23:00 +17°C° 0 mm 3 mps 742 mmHg 86%

Tomorrow, 24 July, Saturday

Time Temperature Precipitation Wind Pressure Humidity
00:00 +17°C° 0 mm 3 mps 742 mmHg 87%
01:00 +17°C° 0 mm 2 mps 743 mmHg 87%
02:00 +17°C° 0 mm 2 mps 743 mmHg 88%
03:00 +16°C° 0 mm 2 mps 743 mmHg 89%
04:00 +16°C° 0 mm 2 mps 743 mmHg 90%
05:00 +15°C° 0 mm 2 mps 743 mmHg 91%
06:00 +16°C° 0 mm 3 mps 743 mmHg 83%
07:00 +18°C° 0 mm 3 mps 744 mmHg 75%
08:00 +19°C° 0 mm 3 mps 744 mmHg 67%
09:00 +20°C° 0 mm 3 mps 744 mmHg 62%
10:00 +22°C° 0 mm 3 mps 744 mmHg 57%
11:00 +24°C° 0 mm 2 mps 745 mmHg 52%
12:00 +25°C° 0 mm 2 mps 745 mmHg 49%
13:00 +25°C° 0 mm 2 mps 745 mmHg 45%
14:00 +26°C° 0 mm 2 mps 745 mmHg 42%
15:00 +26°C° 0 mm 2 mps 745 mmHg 44%
16:00 +25°C° 0 mm 2 mps 745 mmHg 45%
17:00 +25°C° 0 mm 3 mps 745 mmHg 47%
18:00 +24°C° 0 mm 3 mps 745 mmHg 51%
19:00 +21°C° 0 mm 3 mps 746 mmHg 56%
20:00 +20°C° 0 mm 3 mps 746 mmHg 60%
21:00 +19°C° 0 mm 3 mps 746 mmHg 61%
22:00 +19°C° 0 mm 2 mps 746 mmHg 62%
23:00 +18°C° 0 mm 2 mps 747 mmHg 63%

Day after tomorrow, 25 July, Sunday

Time Temperature Precipitation Wind Pressure Humidity
00:00 +18°C° 0 mm 2 mps 747 mmHg 64%
01:00 +17°C° 0 mm 2 mps 747 mmHg 64%
02:00 +17°C° 0 mm 2 mps 747 mmHg 65%
03:00 +17°C° 0 mm 2 mps 747 mmHg 65%
04:00 +17°C° 0 mm 2 mps 747 mmHg 65%
05:00 +17°C° 0 mm 2 mps 748 mmHg 65%
06:00 +18°C° 0 mm 3 mps 748 mmHg 64%
07:00 +19°C° 0 mm 3 mps 748 mmHg 62%
08:00 +20°C° 0 mm 3 mps 748 mmHg 60%
09:00 +21°C° 0 mm 3 mps 748 mmHg 58%
10:00 +21°C° 0 mm 3 mps 749 mmHg 55%
11:00 +22°C° 0 mm 3 mps 749 mmHg 53%
12:00 +24°C° 0 mm 3 mps 749 mmHg 49%
13:00 +26°C° 0 mm 4 mps 749 mmHg 45%
14:00 +27°C° 0 mm 4 mps 749 mmHg 40%
15:00 +27°C° 0 mm 3 mps 749 mmHg 42%
16:00 +27°C° 0 mm 3 mps 749 mmHg 43%
17:00 +27°C° 0 mm 3 mps 749 mmHg 44%
18:00 +25°C° 0 mm 3 mps 749 mmHg 50%
19:00 +23°C° 0 mm 2 mps 749 mmHg 55%
20:00 +20°C° 0 mm 2 mps 749 mmHg 60%
21:00 +20°C° 0 mm 2 mps 749 mmHg 61%
22:00 +19°C° 0 mm 2 mps 750 mmHg 62%
23:00 +19°C° 0 mm 2 mps 750 mmHg 63%

26 July, Monday

Time Temperature Precipitation Wind Pressure Humidity
00:00 +18°C° 0 mm 2 mps 750 mmHg 67%
01:00 +17°C° 0 mm 2 mps 750 mmHg 71%
02:00 +17°C° 0 mm 2 mps 750 mmHg 76%
03:00 +17°C° 0 mm 2 mps 750 mmHg 77%
04:00 +16°C° 0 mm 2 mps 750 mmHg 77%
05:00 +16°C° 0 mm 2 mps 750 mmHg 78%
06:00 +18°C° 0 mm 2 mps 750 mmHg 73%
07:00 +20°C° 0 mm 2 mps 750 mmHg 67%
08:00 +23°C° 0 mm 2 mps 751 mmHg 62%
09:00 +25°C° 0 mm 2 mps 750 mmHg 57%
10:00 +26°C° 0 mm 3 mps 750 mmHg 52%
11:00 +28°C° 0 mm 3 mps 750 mmHg 47%
12:00 +28°C° 0 mm 3 mps 750 mmHg 47%
13:00 +28°C° 0 mm 2 mps 750 mmHg 46%
14:00 +28°C° 0 mm 2 mps 750 mmHg 45%
15:00 +27°C° 0 mm 3 mps 750 mmHg 50%
16:00 +26°C° 0 mm 3 mps 750 mmHg 55%
17:00 +25°C° 0 mm 3 mps 750 mmHg 59%
18:00 +24°C° 0.1 mm 3 mps 750 mmHg 65%
19:00 +21°C° 0.1 mm 3 mps 750 mmHg 71%
20:00 +20°C° 0.1 mm 3 mps 750 mmHg 76%
21:00 +20°C° 0 mm 3 mps 750 mmHg 79%
22:00 +19°C° 0 mm 3 mps 750 mmHg 82%
23:00 +18°C° 0 mm 3 mps 750 mmHg 84%

27 July, Tuesday

Time Temperature Precipitation Wind Pressure Humidity
00:00 +18°C° 0 mm 3 mps 750 mmHg 85%
01:00 +17°C° 0 mm 3 mps 750 mmHg 86%
02:00 +17°C° 0 mm 3 mps 750 mmHg 87%
03:00 +17°C° 0 mm 3 mps 749 mmHg 87%
04:00 +17°C° 0 mm 3 mps 749 mmHg 87%
05:00 +17°C° 0 mm 3 mps 749 mmHg 87%
06:00 +19°C° 0 mm 4 mps 749 mmHg 79%
07:00 +21°C° 0 mm 4 mps 749 mmHg 70%
08:00 +23°C° 0 mm 5 mps 749 mmHg 62%
09:00 +26°C° 0 mm 5 mps 749 mmHg 56%
10:00 +27°C° 0 mm 5 mps 749 mmHg 49%
11:00 +29°C° 0 mm 6 mps 748 mmHg 43%
12:00 +29°C° 0 mm 5 mps 748 mmHg 43%
13:00 +29°C° 0 mm 5 mps 748 mmHg 43%
14:00 +29°C° 0 mm 5 mps 747 mmHg 43%
15:00 +28°C° 0 mm 4 mps 747 mmHg 46%
16:00 +27°C° 0 mm 4 mps 747 mmHg 50%
17:00 +26°C° 0 mm 3 mps 747 mmHg 54%
18:00 +25°C° 0 mm 3 mps 747 mmHg 59%
19:00 +24°C° 0 mm 3 mps 746 mmHg 65%
20:00 +22°C° 0 mm 3 mps 746 mmHg 71%
21:00 +21°C° 0.1 mm 4 mps 746 mmHg 72%
22:00 +21°C° 0.1 mm 4 mps 746 mmHg 74%
23:00 +21°C° 0.1 mm 5 mps 746 mmHg 75%

28 July, Wednesday

Time Temperature Precipitation Wind Pressure Humidity
00:00 +20°C° 0.8 mm 6 mps 745 mmHg 82%
01:00 +19°C° 0.8 mm 6 mps 745 mmHg 89%
02:00 +17°C° 0.8 mm 6 mps 744 mmHg 96%
03:00 +17°C° 0.6 mm 6 mps 744 mmHg 94%
04:00 +17°C° 0.6 mm 6 mps 743 mmHg 93%
05:00 +17°C° 0.6 mm 7 mps 743 mmHg 92%
06:00 +17°C° 0.2 mm 6 mps 743 mmHg 93%
07:00 +17°C° 0.2 mm 6 mps 742 mmHg 94%
08:00 +17°C° 0.2 mm 5 mps 742 mmHg 94%
09:00 +19°C° 0.4 mm 5 mps 742 mmHg 94%
10:00 +20°C° 0.4 mm 4 mps 742 mmHg 93%
11:00 +20°C° 0.4 mm 4 mps 742 mmHg 93%
12:00 +21°C° 0.1 mm 5 mps 742 mmHg 87%
13:00 +22°C° 0.1 mm 5 mps 742 mmHg 81%
14:00 +24°C° 0.1 mm 6 mps 743 mmHg 76%
15:00 +25°C° 0.1 mm 5 mps 743 mmHg 73%
16:00 +26°C° 0.1 mm 5 mps 743 mmHg 70%
17:00 +26°C° 0.1 mm 5 mps 743 mmHg 68%
18:00 +25°C° 0 mm 4 mps 743 mmHg 73%
19:00 +22°C° 0 mm 3 mps 743 mmHg 79%
20:00 +22°C° 0 mm 1 mps 743 mmHg 84%
21:00 +20°C° 0 mm 2 mps 743 mmHg 86%
22:00 +20°C° 0 mm 2 mps 744 mmHg 87%
23:00 +19°C° 0 mm 2 mps 744 mmHg 88%
Show more

We Need Your Consent

Meteoprog and our Service Providers may store and access personal data such as cookies, device identifiers or other similar technologies on your device and process such data to personalise content and ads, as well as provide social media features and to analyse the traffic.

  • Store and/or access information on your device

    Cookies, device identifiers or other information can be stored or accessed on your device for the purposes indicated above.

  • Personalised ads and content, ad and content measurement, audience insights, and products development

    Ads and content can be personalised based on a profile. More data can be added to better personalise ads and content. Ad and content performance can be measured. Insights about the audience who saw the ads and content can be derived. Such data can be used to develop or improve user’s experience, systems and software.

By clicking ‘I Agree’ you will allow the use of indicated cookies, device identifiers, web beacons or other similar technologies. Your settings can be changed in the browser on your device.

For certain purposes, legitimate interests may be relied on, rather than consent. You can read more about this in our Privacy and Cookie Policy.